Wind_Speed
60 61 62 63 64 63 62 65 68 65 65 64 71 72 69 67 66 65 66 62 60 59 60 64 56 46 47 52 51 50 50 55 55 58 58 60 63 65 63 63 67 59 66 64
60 61 62 63 63 63 63 65 64 61 63 64 66 67 67 67 67 64 66 65 59 56 60 59 59 61 51 43 36 41 43 51 55 51 53 53 58 56 58 61 61 63 64 56
45 46 49 49 50 51 52 53 55 58 60 60 54 46 53 60 66 65 64 64 58 62 60 60 58 59 51 50 60 62 51 53 59 58 52 42 49 54 59 63 66 60 63 55
36 38 39 40 41 43 46 47 46 45 46 50 52 53 53 47 47 58 61 65 61 59 56 59 55 60 56 57 65 61 63 61 57 56 59 57 57 63 65 63 63 64 57 55
36 37 39 41 42 45 47 48 46 48 47 44 43 44 48 52 48 47 46 52 61 60 56 52 50 50 53 53 55 55 55 60 63 59 59 52 49 54 65 62 59 60 58 57
38 40 41 43 46 48 47 46 45 49 46 45 48 48 41 36 39 43 40 46 49 54 59 54 55 48 54 54 58 58 58 57 56 55 50 54 52 46 46 50 50 54 58 47
40 41 42 44 46 47 46 43 43 47 47 46 47 43 43 47 52 39 49 45 39 48 53 60 60 57 44 62 46 49 62 59 41 56 45 48 49 48 55 59 54 51 52 53
43 44 44 44 45 47 47 47 46 47 45 43 44 42 43 43 48 60 46 46 45 47 47 55 56 61 63 63 62 63 45 57 59 60 55 52 54 49 45 46 51 46 48 41
40 42 44 43 45 44 44 43 44 46 44 42 39 42 41 42 42 45 63 62 57 45 50 45 48 58 55 55 58 66 69 61 59 57 60 58 37 34 37 30 29 28 24 25
38 34 34 36 38 41 41 42 44 45 45 39 33 22 33 34 41 38 32 33 41 50 52 50 51 51 51 59 58 55 57 60 56 54 59 62 57 39 45 50 31 31 29 27
35 34 32 28 29 31 28 31 30 21 29 26 32 16 35 40 42 44 39 27 38 38 46 47 43 52 51 49 50 55 47 57 51 50 51 53 52 54 60 53 49 46 41 37
28 25 26 27 29 27 29 29 24 22 22 31 33 33 32 31 33 33 40 27 36 37 39 44 45 44 43 50 46 39 43 57 55 58 56 56 59 52 54 50 49 41 41 39
25 23 23 22 25 28 26 24 21 26 23 25 25 29 34 30 27 25 37 36 30 29 33 34 36 43 38 41 40 43 43 41 46 50 50 45 49 48 47 43 40 32 33 36
23 25 26 22 21 22 27 28 24 27 26 23 21 26 18 33 43 36 31 30 35 38 36 38 42 25 33 42 41 43 40 25 31 36 39 40 38 38 42 42 42 38 35 35
20 21 23 24 24 24 26 27 24 22 21 20 21 25 30 23 28 34 35 35 30 31 37 39 37 25 28 32 36 44 27 31 29 28 29 34 33 33 37 40 42 39 36 44
18 19 18 17 19 23 25 25 26 24 21 21 19 23 31 29 32 33 27 22 28 31 35 34 33 27 26 24 30 32 33 34 35 35 40 34 30 28 28 33 36 36 39 31
18 18 18 17 17 23 24 22 21 20 21 20 25 35 29 35 31 36 28 29 31 33 34 35 32 34 35 27 27 22 27 31 38 33 32 34 28 32 26 28 31 33 30 25
15 14 15 17 19 19 19 21 23 24 22 20 14 18 22 30 32 33 26 25 27 27 28 28 27 31 30 33 29 25 26 32 28 30 27 26 28 23 28 27 24 20 15 16
14 12 13 15 18 20 19 21 20 19 17 17 13 17 15 26 33 31 24 20 24 25 25 24 31 30 30 14 14 20 27 31 32 31 19 14 19 22 24 18 13 14 16 16
14 14 14 16 18 22 21 23 20 15 12 10 12 19 15 17 21 20 16 14 18 20 16 23 25 21 24 22 16 18 28 33 25 15 7 13 18 15 13 11 12 12 12 12
16 14 19 13 17 15 12 16 15 5 6 7 14 16 16 15 14 13 19 17 16 15 13 12 10 6 9 20 24 25 21 15 10 10 13 15 12 11 11 11 10 9 11 16
25 20 12 15 19 20 19 13 10 7 4 9 10 9 8 11 15 14 11 9 8 8 8 10 9 8 10 18 21 19 19 19 15 11 13 13 13 11 10 9 10 14 17 18
26 14 5 24 24 20 14 13 12 9 5 2 4 6 8 11 10 2 7 9 11 11 12 13 12 11 9 13 16 18 16 16 15 19 19 15 12 12 11 12 15 17 18 19
16 20 23 24 20 14 13 13 8 5 6 15 14 11 6 6 5 10 14 11 12 13 16 13 13 11 12 17 17 20 20 16 16 17 15 14 13 12 14 16 16 18 19 20
20 23 24 21 16 15 17 14 14 11 14 13 12 11 8 6 5 6 9 11 11 10 8 6 6 5 9 16 19 20 21 21 21 18 18 14 13 15 17 17 19 20 21 23
24 27 25 17 14 14 15 17 13 11 12 10 8 7 6 0 2 6 8 8 8 8 7 6 7 7 11 16 22 22 21 19 18 15 14 14 16 17 18 19 19 21 23 25
28 22 17 14 14 13 12 11 8 9 9 8 8 6 4 4 3 5 9 10 10 9 7 7 10 11 11 13 13 14 14 14 14 14 14 15 16 17 17 19 21 23 25 27
Wind_Direction
258 257 257 258 258 256 255 253 256 258 254 252 254 255 260 263 259 249 248 250 253 251 249 249 248 256 254 256 258 249 246 246 249 254 255 254 252 254 248 251 255 258 259 263
254 253 253 253 252 253 253 253 252 249 248 249 253 256 256 254 252 249 244 243 243 244 244 242 246 245 241 233 233 229 238 256 249 248 247 254 255 255 257 258 258 258 262 271
252 252 253 253 253 253 252 253 252 252 250 249 250 252 251 252 252 252 250 247 243 240 238 235 233 232 225 228 236 239 248 243 233 239 244 250 258 256 256 258 261 265 266 270
249 248 248 249 248 247 247 247 250 250 250 248 249 246 245 245 251 254 252 249 245 245 246 240 242 241 237 242 244 246 236 233 230 233 238 242 254 258 260 262 262 263 264 264
251 251 250 250 251 250 251 252 254 252 251 250 247 248 252 248 246 245 251 256 247 246 243 243 243 246 245 242 248 247 248 253 249 252 252 250 246 254 257 258 260 262 261 260
254 253 251 250 248 249 253 256 255 255 253 251 249 248 245 238 228 235 236 249 247 238 243 240 238 239 245 248 251 253 248 251 255 255 249 253 257 258 257 256 260 266 265 263
259 256 253 251 251 251 251 253 252 252 251 248 248 250 245 236 223 232 220 224 231 243 235 236 240 237 248 248 250 261 252 250 245 257 249 254 257 262 264 262 265 263 267 265
259 256 254 252 250 250 252 253 252 252 251 248 244 244 242 240 233 229 228 225 234 239 241 239 237 235 238 245 240 247 247 255 255 253 253 262 262 263 263 257 258 268 271 270
259 257 255 254 253 252 249 247 244 245 247 242 249 248 245 242 241 238 234 231 252 239 240 239 235 234 237 241 249 249 253 255 254 252 251 249 254 252 241 248 253 256 265 264
259 254 249 245 244 245 246 245 243 245 251 246 231 227 239 234 233 231 234 239 244 239 235 236 235 235 236 239 242 246 252 251 252 251 252 251 243 250 257 265 255 259 273 276
254 253 251 238 238 239 237 236 221 236 234 233 224 215 218 226 233 225 227 228 237 239 237 235 237 242 233 238 243 242 245 246 246 250 254 255 253 260 262 271 269 266 281 285
248 246 238 231 227 224 227 225 234 214 232 242 237 213 217 225 229 228 230 238 240 235 237 242 235 237 241 238 244 242 251 248 249 250 253 255 253 266 266 272 276 282 278 276
238 224 217 214 215 221 227 210 215 228 228 226 231 236 214 226 210 215 223 227 237 245 247 248 251 253 244 238 243 245 245 249 256 249 250 256 257 260 267 270 274 272 269 266
211 213 216 215 219 224 222 222 224 223 231 239 223 222 218 228 232 240 243 244 243 248 251 259 257 232 250 247 246 250 235 236 246 260 250 254 258 257 260 264 266 264 255 254
205 217 220 221 228 237 225 216 221 227 232 235 225 230 233 232 226 234 235 236 243 253 253 254 227 235 243 244 241 236 233 248 250 248 247 245 240 247 252 249 245 245 255 259
216 224 224 235 233 215 209 215 218 222 230 238 235 240 234 237 230 226 224 235 247 250 259 242 221 235 245 246 247 238 246 247 254 248 248 249 241 232 258 242 241 246 247 246
221 229 235 233 213 201 206 210 215 222 232 247 256 248 234 234 233 222 235 251 255 254 246 237 246 252 258 254 241 240 241 241 242 242 258 254 249 269 252 246 237 233 235 239
233 225 212 204 193 194 200 212 218 226 225 222 216 222 222 219 217 227 237 248 252 250 239 236 239 247 253 254 258 246 241 243 245 246 246 249 272 249 238 232 228 224 233 250
190 179 179 179 179 182 193 184 187 189 201 193 172 180 214 224 228 238 246 248 246 244 239 240 249 242 244 256 252 245 241 241 229 222 244 284 262 229 213 210 218 233 241 248
173 172 169 161 166 174 174 174 173 193 204 170 165 191 205 218 228 240 243 249 259 266 259 253 261 266 261 260 245 238 225 224 214 251 261 250 220 208 203 218 233 238 241 259
161 151 142 149 166 160 159 172 183 156 146 176 193 209 212 223 220 235 252 249 247 260 267 264 259 258 229 207 207 215 218 233 230 224 247 243 224 214 215 219 223 241 257 265
133 131 116 165 155 149 136 142 162 195 153 182 194 194 195 224 240 236 230 249 280 271 281 276 274 248 220 216 215 227 226 222 225 233 239 231 224 210 205 216 240 253 262 272
130 107 172 162 154 156 173 174 132 122 78 55 162 143 163 179 162 175 280 278 265 275 287 286 277 256 227 198 191 191 190 197 212 231 230 217 202 197 218 236 248 260 269 273
150 159 172 165 164 153 159 150 126 123 147 136 123 125 140 136 163 207 239 260 264 269 275 272 266 258 217 199 199 200 203 209 216 221 212 198 204 219 234 246 258 265 270 272
167 169 174 167 160 159 152 134 129 117 150 140 139 133 151 183 210 238 245 255 261 263 259 275 258 230 182 192 199 199 206 215 215 197 197 207 219 235 247 258 264 270 276 279
184 170 162 159 149 150 153 152 135 132 136 132 149 158 165 163 281 236 243 256 257 253 252 247 222 213 200 198 201 200 194 188 191 196 206 221 236 249 260 268 273 278 280 281
165 163 165 162 158 161 160 157 148 141 148 148 164 184 231 283 308 234 254 260 251 252 255 218 195 186 174 169 174 178 180 188 201 214 226 242 253 262 267 274 280 281 281 283
Height
5525 5529 5531 5534 5538 5543 5547 5546 5548 5566 5565 5561 5559 5564 5583 5593 5602 5608 5609 5611 5619 5627 5633 5634 5640 5644 5648 5650 5651 5650 5652 5652 5655 5664 5669 5670 5668 5671 5673 5669 5676 5673 5674 5679
5508 5511 5514 5518 5521 5526 5526 5527 5534 5544 5545 5544 5546 5556 5562 5570 5579 5586 5591 5594 5602 5613 5615 5621 5625 5631 5640 5642 5639 5637 5638 5638 5643 5649 5654 5656 5655 5662 5659 5658 5659 5659 5659 5668
5494 5496 5499 5503 5506 5509 5509 5512 5517 5526 5528 5534 5538 5544 5546 5551 5562 5568 5574 5580 5585 5592 5596 5604 5609 5612 5623 5620 5623 5627 5627 5627 5629 5634 5644 5649 5640 5645 5646 5646 5641 5649 5644 5655
5484 5486 5489 5491 5493 5494 5496 5498 5506 5514 5514 5522 5528 5532 5535 5540 5546 5552 5558 5560 5567 5577 5582 5588 5591 5599 5605 5604 5607 5610 5610 5608 5613 5619 5625 5627 5626 5626 5628 5631 5632 5628 5640 5633
5475 5477 5479 5481 5482 5482 5485 5489 5498 5500 5504 5511 5514 5516 5522 5527 5535 5540 5542 5541 5555 5562 5565 5574 5580 5584 5588 5591 5589 5590 5595 5592 5596 5598 5608 5606 5606 5610 5618 5615 5616 5614 5620 5622
5464 5466 5468 5469 5470 5472 5474 5481 5485 5485 5493 5497 5499 5506 5513 5517 5524 5528 5532 5533 5536 5541 5551 5561 5560 5566 5570 5573 5576 5579 5582 5582 5585 5585 5594 5592 5591 5601 5605 5606 5605 5605 5602 5616
5452 5454 5455 5457 5458 5461 5464 5469 5472 5470 5477 5483 5487 5494 5498 5503 5511 5514 5516 5522 5524 5534 5537 5536 5549 5556 5557 5557 5566 5562 5565 5571 5574 5573 5579 5575 5584 5591 5591 5591 5594 5594 5592 5598
5439 5440 5442 5444 5446 5448 5452 5457 5458 5460 5463 5471 5475 5481 5485 5489 5495 5500 5504 5508 5514 5518 5524 5528 5531 5538 5541 5544 5549 5546 5551 5554 5558 5561 5565 5567 5573 5582 5579 5576 5582 5585 5582 5587
5425 5427 5429 5431 5432 5435 5438 5445 5446 5447 5451 5459 5468 5468 5475 5480 5483 5487 5492 5501 5503 5510 5513 5515 5515 5521 5531 5535 5537 5539 5541 5544 5547 5551 5551 5554 5566 5565 5568 5563 5571 5573 5573 5574
5412 5414 5416 5418 5421 5423 5427 5432 5435 5437 5441 5451 5452 5453 5461 5469 5474 5480 5486 5491 5493 5495 5498 5502 5505 5510 5518 5519 5525 5529 5529 5531 5533 5539 5537 5541 5553 5559 5553 5553 5570 5563 5563 5565
5401 5404 5406 5409 5412 5415 5418 5423 5427 5431 5436 5439 5442 5444 5454 5461 5466 5472 5480 5484 5483 5485 5488 5492 5497 5498 5504 5509 5514 5518 5518 5522 5526 5528 5527 5531 5550 5547 5543 5549 5549 5551 5553 5556
5392 5395 5398 5402 5406 5410 5414 5418 5423 5427 5429 5434 5435 5439 5446 5452 5460 5465 5470 5477 5474 5478 5480 5483 5487 5489 5495 5498 5500 5508 5510 5511 5519 5518 5520 5525 5531 5531 5532 5535 5537 5539 5543 5546
5385 5389 5393 5397 5401 5406 5410 5416 5420 5422 5426 5429 5432 5436 5442 5448 5453 5458 5465 5467 5468 5471 5473 5476 5479 5480 5488 5488 5492 5495 5500 5501 5500 5505 5509 5513 5516 5517 5520 5522 5525 5529 5532 5534
5382 5386 5390 5394 5398 5402 5406 5410 5414 5417 5422 5426 5430 5434 5438 5443 5448 5454 5458 5459 5461 5464 5467 5470 5473 5472 5475 5478 5484 5485 5492 5492 5494 5494 5499 5501 5506 5508 5509 5513 5516 5520 5522 5523
5380 5383 5387 5391 5394 5397 5401 5406 5410 5414 5419 5422 5426 5430 5436 5440 5444 5449 5451 5454 5457 5457 5457 5458 5464 5467 5468 5471 5473 5475 5481 5485 5486 5489 5490 5491 5496 5497 5499 5501 5505 5507 5511 5512
5378 5381 5383 5386 5388 5391 5398 5403 5407 5411 5415 5418 5421 5427 5431 5436 5439 5443 5446 5448 5450 5450 5448 5453 5457 5461 5462 5463 5465 5472 5474 5478 5479 5482 5479 5484 5486 5487 5489 5491 5496 5499 5502 5501
5376 5378 5381 5383 5385 5389 5395 5400 5404 5407 5410 5413 5415 5419 5424 5430 5433 5438 5441 5443 5443 5444 5443 5447 5452 5455 5455 5456 5460 5468 5468 5471 5472 5474 5476 5476 5477 5479 5481 5484 5486 5489 5492 5494
5373 5375 5378 5381 5385 5389 5393 5397 5401 5404 5407 5409 5410 5415 5419 5424 5430 5433 5437 5438 5438 5438 5440 5444 5447 5449 5448 5448 5456 5459 5462 5464 5466 5468 5468 5470 5470 5471 5474 5477 5480 5482 5485 5487
5372 5375 5378 5382 5385 5389 5393 5396 5398 5402 5406 5406 5409 5414 5420 5422 5427 5431 5433 5433 5433 5436 5436 5439 5439 5440 5439 5445 5448 5449 5453 5457 5459 5459 5464 5463 5464 5467 5470 5472 5475 5478 5480 5483
5374 5377 5380 5384 5387 5390 5393 5397 5399 5402 5404 5407 5411 5415 5419 5423 5425 5427 5429 5429 5428 5428 5431 5431 5429 5431 5434 5436 5440 5443 5446 5449 5453 5457 5458 5460 5462 5463 5464 5468 5471 5474 5477 5478
5377 5380 5384 5389 5390 5393 5396 5399 5401 5404 5407 5410 5413 5415 5418 5420 5423 5425 5426 5426 5427 5427 5428 5428 5428 5429 5430 5432 5435 5439 5442 5445 5448 5451 5454 5456 5458 5460 5462 5466 5469 5471 5473 5474
5381 5383 5386 5389 5392 5395 5398 5401 5404 5407 5410 5412 5414 5416 5417 5420 5421 5423 5424 5424 5425 5426 5426 5426 5427 5428 5429 5432 5434 5436 5440 5443 5447 5449 5452 5454 5455 5457 5460 5463 5466 5468 5468 5468
5382 5386 5393 5392 5395 5397 5400 5403 5406 5408 5411 5413 5415 5416 5418 5419 5421 5422 5423 5424 5425 5425 5425 5425 5426 5426 5427 5429 5432 5435 5438 5442 5444 5447 5449 5451 5453 5456 5458 5460 5462 5462 5462 5462
5384 5387 5393 5394 5397 5400 5403 5405 5408 5411 5413 5414 5415 5417 5419 5420 5421 5422 5424 5424 5424 5424 5424 5424 5423 5423 5424 5427 5430 5433 5436 5439 5442 5444 5446 5449 5451 5453 5455 5456 5457 5457 5457 5456
5388 5391 5394 5398 5401 5403 5405 5406 5408 5410 5412 5415 5417 5418 5419 5421 5422 5422 5423 5423 5423 5422 5422 5422 5422 5422 5422 5425 5428 5431 5434 5437 5439 5442 5445 5447 5449 5451 5452 5452 5452 5452 5451 5451
5390 5393 5398 5401 5404 5405 5407 5409 5410 5412 5413 5415 5417 5419 5420 5421 5421 5421 5421 5422 5421 5421 5421 5421 5421 5421 5422 5424 5426 5429 5432 5435 5438 5441 5443 5445 5447 5448 5448 5447 5447 5446 5445 5444
5394 5399 5401 5403 5405 5407 5409 5411 5412 5413 5414 5415 5417 5418 5419 5420 5419 5419 5419 5419 5419 5419 5419 5419 5420 5422 5423 5425 5427 5430 5432 5435 5438 5440 5441 5442 5443 5443 5443 5442 5442 5440 5439 5437